Domov               UVHVVR             MKGP            O straneh              
ZDRAVSTVENO VARSTVO RASTLIN
  MREŽA AGROMET. POSTAJ
 ► PROGNOSTIČNA OBVESTILA
AGROMETEOROLOŠKI PODATKI -
ARSO
OBVLADOVANJE TVEGANJ ZARADI
NEUGODNIH VREMENSKIH RAZMER
  ► NARAVNE NESREČE
  ► SUŠA/MOČA
  ► NAMAKANJE
  ► ŽLED (gozdarstvo)
KARTOGRAFSKI PRIKAZI
SPLETNE POVEZAVE
PROJEKTI IN PUBLIKACIJE

AGROMETEOROLOŠKA MREŽA: VREMENSKE POSTAJE IN FENOLOŠKA OPAZOVANJA

Pregled podatkov za lokacijo Podbrezje, meteorološka postaja 855704

Pregled senzorjev na lokaciji

ID Ime Zadnja
vrednost
Datum
zadnje
spremembe
Tip
senzorja
4021 Temperatura 2 m ( °C) 26,98 °C 17.8.2017 19:00 50YA
4022 Relativna vlaga 2 m (% RH) 50,82 % RH 17.8.2017 19:00 50YA
4023 Omočenost lista (U) 0 U 17.8.2017 19:00 A730WET
4024 Padavine 0.2 mm (mm) 0 mm 17.8.2017 19:00 Rain-O-Matic

Pregled podatkov zadnjih 24 ur

Zap.
št.
Datum in čas Podbrezje
Omočenost
lista
Padavine
0.2
mm
Relativna
vlaga
2
m
Temperatura
2
m
0 17.8.2017 18:00 0 0 50,82 26,98
1 17.8.2017 17:30 0 0 48,93 27,71
2 17.8.2017 17:00 0 0 45,4 28,66
3 17.8.2017 16:30 0 0 45,94 28,6
4 17.8.2017 16:00 0 0 45,54 28,71
5 17.8.2017 15:30 0 0 46,55 28,52
6 17.8.2017 15:00 0 0 46,24 28,69
7 17.8.2017 14:30 0 0 47,82 28,32
8 17.8.2017 14:00 0 0 47,87 28,12
9 17.8.2017 13:30 0 0 47,17 27,92
10 17.8.2017 13:00 0 0 51,13 27,58
11 17.8.2017 12:30 0 0 51,46 27,3
12 17.8.2017 12:00 0 0 53,33 26,83
13 17.8.2017 11:30 0 0 54,61 26,31
14 17.8.2017 11:00 0 0 55,11 25,91
15 17.8.2017 10:30 0 0 54,42 25,42
16 17.8.2017 10:00 0 0 59,88 24,88
17 17.8.2017 09:30 0 0 64,28 23,86
18 17.8.2017 09:00 0 0 65,88 23,37
19 17.8.2017 08:30 0 0 69,32 22,71
20 17.8.2017 08:00 0 0 76,36 21,36
21 17.8.2017 07:30 8 0 82,94 19,65
22 17.8.2017 07:00 5 0 89,25 17,78
23 17.8.2017 06:30 10 0 92,14 16,75
24 17.8.2017 06:00 10 0 96,7 15,6
25 17.8.2017 05:30 10 0 98,28 15,15
26 17.8.2017 05:00 10 0 97,77 15,07
27 17.8.2017 04:30 10 0 97,67 15,23
28 17.8.2017 04:00 10 0 97,38 15,79
29 17.8.2017 03:30 10 0 97,18 16,08
30 17.8.2017 03:00 10 0 96,81 16,15
31 17.8.2017 02:30 10 0 96,88 16,29
32 17.8.2017 02:00 10 0 96,55 16,25
33 17.8.2017 01:30 10 0 96,01 16,17
34 17.8.2017 01:00 10 0 93,43 16,51
35 17.8.2017 00:30 10 0 93,9 16,51
36 17.8.2017 00:00 10 0 95,96 16,24
37 16.8.2017 23:30 10 0 97,08 16,37
38 16.8.2017 23:00 10 0 96,7 16,71
39 16.8.2017 22:30 10 0 95,53 17,05
40 16.8.2017 22:00 10 0 92,53 17,32
41 16.8.2017 21:30 10 0 91,92 17,96
42 16.8.2017 21:00 10 0 88,89 18,29
43 16.8.2017 20:30 10 0 92,59 18,69
44 16.8.2017 20:00 10 0 91,48 19,01
45 16.8.2017 19:30 10 0 90,08 19,35
© 2011 Ministrstvo za kmetijstvo, gozdarstvo in prehrano. Vse pravice pridržane.